This is the latest recevied weather packets stored in our database for station/object KA1AL. If no packets are shown the sender has not sent any weather packets the latest 10 day(s).
| Time | Temp. | Humidity | Pressure | Rain* | Wind** | Luminosity | Snow |
|---|---|---|---|---|---|---|---|
| 1778016032 | 21.67° C | 61% | 1002 hPa | 0 mm | - | 118 W/m² | - |
| 1778015729 | 21.67° C | 61% | 1002 hPa | 0 mm | - | 143 W/m² | - |
| 1778015425 | 21.67° C | 61% | 1001.9 hPa | 0 mm | - | 142 W/m² | - |
| 1778015122 | 21.67° C | 61% | 1001.9 hPa | 0 mm | - | 115 W/m² | - |
| 1778014820 | 21.67° C | 60% | 1002 hPa | 0 mm | - | 150 W/m² | - |
| 1778014518 | 22.22° C | 59% | 1001.6 hPa | 0 mm | - | 149 W/m² | - |
| 1778014214 | 22.22° C | 59% | 1001.8 hPa | 0 mm | - | 140 W/m² | - |
| 1778013912 | 22.78° C | 59% | 1001.8 hPa | 0 mm | - | 173 W/m² | - |
| 1778013609 | 22.22° C | 58% | 1001.9 hPa | 0 mm | - | 249 W/m² | - |
| 1778013305 | 22.22° C | 59% | 1002.1 hPa | 0 mm | - | 176 W/m² | - |
| 1778013002 | 22.78° C | 58% | 1002.1 hPa | 0 mm | - | 180 W/m² | - |
| 1778012699 | 22.22° C | 58% | 1002 hPa | 0 mm | - | 229 W/m² | - |
| 1778012394 | 22.22° C | 58% | 1001.9 hPa | 0 mm | - | 133 W/m² | - |
| 1778012092 | 22.78° C | 57% | 1002 hPa | 0 mm | - | 147 W/m² | - |
| 1778011789 | 22.78° C | 57% | 1001.8 hPa | 0 mm | - | 228 W/m² | - |
| 1778011487 | 22.78° C | 57% | 1001.8 hPa | 0 mm | - | 157 W/m² | - |
| 1778011182 | 22.78° C | 59% | 1002.1 hPa | 0 mm | - | 235 W/m² | - |
| 1778010880 | 22.78° C | 57% | 1001.9 hPa | 0 mm | - | 195 W/m² | - |
| 1778010577 | 22.78° C | 57% | 1001.8 hPa | 0 mm | - | 172 W/m² | - |
| 1778010274 | 23.33° C | 57% | 1002 hPa | 0 mm | - | 511 W/m² | - |
| 1778009974 | 23.33° C | 56% | 1001.9 hPa | 0 mm | - | 416 W/m² | - |
| 1778009672 | 23.33° C | 56% | 1002.2 hPa | 0 mm | - | 429 W/m² | - |
| 1778009370 | 23.33° C | 56% | 1002.2 hPa | 0 mm | - | 254 W/m² | - |
| 1778009068 | 23.33° C | 56% | 1002.2 hPa | 0 mm | - | 433 W/m² | - |
| 1778008765 | 23.89° C | 56% | 1002.2 hPa | 0 mm | - | 389 W/m² | - |
* Rain latest hour (hover to see other rain measurements)
** Current wind speed in m/s (hover to see current wind gust speed)